Time,TemperatureF,DewpointF,PressureIn,WindDirection,WindDirectionDegrees,WindSpeedMPH,WindSpeedGustMPH,Humidity,HourlyPrecipIn,Conditions,Clouds,dailyrainin,SoftwareType,DateUTC
2013-04-12 00:00:00,44.0,40.0,30.00,NNE,22,4.0,17.0,85,-99.99,,,-99.99,,2013-04-12 04:00:00,
2013-04-12 00:23:00,44.0,40.0,30.00,NNE,22,4.0,17.0,85,-99.99,,,-99.99,,2013-04-12 04:23:00,
2013-04-12 00:33:00,44.0,40.0,30.00,NNE,22,4.0,17.0,85,-99.99,,,-99.99,,2013-04-12 04:33:00,
2013-04-12 00:43:00,44.0,40.0,30.00,NNE,22,4.0,17.0,85,-99.99,,,-99.99,,2013-04-12 04:43:00,
2013-04-12 00:53:00,44.0,40.0,30.00,NNE,22,4.0,17.0,85,-99.99,,,-99.99,,2013-04-12 04:53:00,
2013-04-12 01:00:00,44.0,39.0,30.00,NE,52,3.0,18.0,81,-99.99,,,-99.99,,2013-04-12 05:00:00,
2013-04-12 01:23:00,44.0,39.0,30.00,NE,52,3.0,18.0,81,-99.99,,,-99.99,,2013-04-12 05:23:00,
2013-04-12 01:32:00,44.0,39.0,30.00,NE,52,3.0,18.0,81,-99.99,,,-99.99,,2013-04-12 05:32:00,
2013-04-12 01:42:00,44.0,39.0,30.00,NE,52,3.0,18.0,81,-99.99,,,-99.99,,2013-04-12 05:42:00,
2013-04-12 01:52:00,44.0,39.0,30.00,NE,52,3.0,18.0,81,-99.99,,,-99.99,,2013-04-12 05:52:00,
2013-04-12 03:00:00,44.0,36.0,29.97,ESE,122,5.0,20.0,72,-99.99,,,-99.99,,2013-04-12 07:00:00,
2013-04-12 03:22:00,44.0,36.0,29.97,ESE,122,5.0,20.0,72,-99.99,,,-99.99,,2013-04-12 07:22:00,
2013-04-12 03:32:00,44.0,36.0,29.97,ESE,122,5.0,20.0,72,-99.99,,,-99.99,,2013-04-12 07:32:00,
2013-04-12 03:42:00,44.0,36.0,29.97,ESE,122,5.0,20.0,72,-99.99,,,-99.99,,2013-04-12 07:42:00,
2013-04-12 03:52:00,44.0,36.0,29.97,ESE,122,5.0,20.0,72,-99.99,,,-99.99,,2013-04-12 07:52:00,
2013-04-12 04:00:00,43.0,36.0,29.94,ESE,116,5.0,23.0,74,-99.99,,,-99.99,,2013-04-12 08:00:00,
2013-04-12 04:22:00,43.0,36.0,29.94,ESE,116,5.0,23.0,74,-99.99,,,-99.99,,2013-04-12 08:22:00,
2013-04-12 04:32:00,43.0,36.0,29.94,ESE,116,5.0,23.0,74,-99.99,,,-99.99,,2013-04-12 08:32:00,
2013-04-12 04:43:00,43.0,36.0,29.94,ESE,116,5.0,23.0,74,-99.99,,,-99.99,,2013-04-12 08:43:00,
2013-04-12 04:53:00,43.0,36.0,29.94,ESE,116,5.0,23.0,74,-99.99,,,-99.99,,2013-04-12 08:53:00,
2013-04-12 05:00:00,42.0,37.0,29.94,ENE,71,11.0,21.0,81,-99.99,,,-99.99,,2013-04-12 09:00:00,
2013-04-12 05:22:00,42.0,37.0,29.94,ENE,71,11.0,21.0,81,-99.99,,,-99.99,,2013-04-12 09:22:00,
2013-04-12 05:33:00,42.0,37.0,29.94,ENE,71,11.0,21.0,81,-99.99,,,-99.99,,2013-04-12 09:33:00,
2013-04-12 05:44:00,42.0,37.0,29.94,ENE,71,11.0,21.0,81,-99.99,,,-99.99,,2013-04-12 09:44:00,
2013-04-12 05:53:00,42.0,37.0,29.94,ENE,71,11.0,21.0,81,-99.99,,,-99.99,,2013-04-12 09:53:00,
2013-04-12 06:00:00,41.0,37.0,29.91,ENE,63,4.0,17.0,86,-99.99,,,-99.99,,2013-04-12 10:00:00,
2013-04-12 06:23:00,41.0,37.0,29.91,ENE,63,4.0,17.0,86,-99.99,,,-99.99,,2013-04-12 10:23:00,
2013-04-12 06:34:00,41.0,37.0,29.91,ENE,63,4.0,17.0,86,-99.99,,,-99.99,,2013-04-12 10:34:00,
2013-04-12 06:43:00,41.0,37.0,29.91,ENE,63,4.0,17.0,86,-99.99,,,-99.99,,2013-04-12 10:43:00,
2013-04-12 06:53:00,41.0,37.0,29.91,ENE,63,4.0,17.0,86,-99.99,,,-99.99,,2013-04-12 10:53:00,
2013-04-12 07:00:00,40.0,38.0,29.88,ENE,67,10.0,19.0,90,-99.99,,,-99.99,,2013-04-12 11:00:00,
2013-04-12 07:22:00,40.0,38.0,29.88,ENE,67,10.0,19.0,90,-99.99,,,-99.99,,2013-04-12 11:22:00,
2013-04-12 07:33:00,40.0,38.0,29.88,ENE,67,10.0,19.0,90,-99.99,,,-99.99,,2013-04-12 11:33:00,
2013-04-12 07:43:00,40.0,38.0,29.88,ENE,67,10.0,19.0,90,-99.99,,,-99.99,,2013-04-12 11:43:00,
2013-04-12 07:52:00,40.0,38.0,29.88,ENE,67,10.0,19.0,90,-99.99,,,-99.99,,2013-04-12 11:52:00,
2013-04-12 08:00:00,39.0,37.0,29.88,ENE,68,5.0,19.0,90,-99.99,,,-99.99,,2013-04-12 12:00:00,
2013-04-12 08:33:00,39.0,37.0,29.88,ENE,68,5.0,19.0,90,-99.99,,,-99.99,,2013-04-12 12:33:00,
2013-04-12 08:43:00,39.0,37.0,29.88,ENE,68,5.0,19.0,90,-99.99,,,-99.99,,2013-04-12 12:43:00,
2013-04-12 08:53:00,39.0,37.0,29.88,ENE,68,5.0,19.0,90,-99.99,,,-99.99,,2013-04-12 12:53:00,
2013-04-12 09:00:00,38.0,36.0,29.85,ENE,64,6.0,20.0,93,-99.99,,,-99.99,,2013-04-12 13:00:00,
2013-04-12 09:32:00,38.0,36.0,29.85,ENE,64,6.0,20.0,93,-99.99,,,-99.99,,2013-04-12 13:32:00,
2013-04-12 09:43:00,38.0,36.0,29.85,ENE,64,6.0,20.0,93,-99.99,,,-99.99,,2013-04-12 13:43:00,
2013-04-12 09:53:00,38.0,36.0,29.85,ENE,64,6.0,20.0,93,-99.99,,,-99.99,,2013-04-12 13:53:00,
2013-04-12 10:00:00,38.0,36.0,29.83,NNE,32,5.0,19.0,91,-99.99,,,-99.99,,2013-04-12 14:00:00,
2013-04-12 10:23:00,38.0,36.0,29.83,NNE,32,5.0,19.0,91,-99.99,,,-99.99,,2013-04-12 14:23:00,
2013-04-12 10:33:00,38.0,36.0,29.83,NNE,32,5.0,19.0,91,-99.99,,,-99.99,,2013-04-12 14:33:00,
2013-04-12 10:43:00,38.0,36.0,29.83,NNE,32,5.0,19.0,91,-99.99,,,-99.99,,2013-04-12 14:43:00,
2013-04-12 10:54:00,38.0,36.0,29.83,NNE,32,5.0,19.0,91,-99.99,,,-99.99,,2013-04-12 14:54:00,
2013-04-12 11:00:00,39.0,36.0,29.88,East,82,12.0,14.0,91,-99.99,,,-99.99,,2013-04-12 15:00:00,
2013-04-12 11:22:00,39.0,36.0,29.88,East,82,12.0,14.0,91,-99.99,,,-99.99,,2013-04-12 15:22:00,
2013-04-12 11:33:00,39.0,36.0,29.88,East,82,12.0,14.0,91,-99.99,,,-99.99,,2013-04-12 15:33:00,
2013-04-12 11:43:00,39.0,36.0,29.88,East,82,12.0,14.0,91,-99.99,,,-99.99,,2013-04-12 15:43:00,
2013-04-12 11:53:00,39.0,36.0,29.88,East,82,12.0,14.0,91,-99.99,,,-99.99,,2013-04-12 15:53:00,
2013-04-12 12:00:00,40.0,36.0,29.85,East,82,9.0,16.0,88,-99.99,,,-99.99,,2013-04-12 16:00:00,
2013-04-12 12:23:00,40.0,36.0,29.85,East,82,9.0,16.0,88,-99.99,,,-99.99,,2013-04-12 16:23:00,
2013-04-12 12:34:00,40.0,36.0,29.85,East,82,9.0,16.0,88,-99.99,,,-99.99,,2013-04-12 16:34:00,
2013-04-12 12:43:00,40.0,36.0,29.85,East,82,9.0,16.0,88,-99.99,,,-99.99,,2013-04-12 16:43:00,
2013-04-12 12:53:00,40.0,36.0,29.85,East,82,9.0,16.0,88,-99.99,,,-99.99,,2013-04-12 16:53:00,
2013-04-12 13:00:00,40.0,37.0,29.80,NE,39,7.0,14.0,89,-99.99,,,-99.99,,2013-04-12 17:00:00,
2013-04-12 13:34:00,40.0,37.0,29.80,NE,39,7.0,14.0,89,-99.99,,,-99.99,,2013-04-12 17:34:00,
2013-04-12 13:47:00,40.0,37.0,29.80,NE,39,7.0,14.0,89,-99.99,,,-99.99,,2013-04-12 17:47:00,
2013-04-12 14:00:00,40.0,38.0,29.80,North,3,8.0,16.0,93,-99.99,,,-99.99,,2013-04-12 18:00:00,
2013-04-12 15:00:00,40.0,38.0,29.77,ENE,78,7.0,15.0,91,-99.99,,,-99.99,,2013-04-12 19:00:00,
2013-04-12 15:27:00,40.0,38.0,29.77,ENE,78,7.0,15.0,91,-99.99,,,-99.99,,2013-04-12 19:27:00,
2013-04-12 15:33:00,40.0,38.0,29.77,ENE,78,7.0,15.0,91,-99.99,,,-99.99,,2013-04-12 19:33:00,
2013-04-12 15:43:00,40.0,38.0,29.77,ENE,78,7.0,15.0,91,-99.99,,,-99.99,,2013-04-12 19:43:00,
2013-04-12 15:53:00,40.0,38.0,29.77,ENE,78,7.0,15.0,91,-99.99,,,-99.99,,2013-04-12 19:53:00,
2013-04-12 16:00:00,40.0,38.0,29.77,East,79,10.0,13.0,92,-99.99,,,-99.99,,2013-04-12 20:00:00,
2013-04-12 16:22:00,40.0,38.0,29.77,East,79,10.0,13.0,92,-99.99,,,-99.99,,2013-04-12 20:22:00,
2013-04-12 16:33:00,40.0,38.0,29.77,East,79,10.0,13.0,92,-99.99,,,-99.99,,2013-04-12 20:33:00,
2013-04-12 16:43:00,40.0,38.0,29.77,East,79,10.0,13.0,92,-99.99,,,-99.99,,2013-04-12 20:43:00,
2013-04-12 16:52:00,40.0,38.0,29.77,East,79,10.0,13.0,92,-99.99,,,-99.99,,2013-04-12 20:52:00,
2013-04-12 17:00:00,40.0,38.0,29.77,NE,54,8.0,12.0,93,-99.99,,,-99.99,,2013-04-12 21:00:00,
2013-04-12 17:33:00,40.0,38.0,29.77,NE,54,8.0,12.0,93,-99.99,,,-99.99,,2013-04-12 21:33:00,
2013-04-12 17:43:00,40.0,38.0,29.77,NE,54,8.0,12.0,93,-99.99,,,-99.99,,2013-04-12 21:43:00,
2013-04-12 17:53:00,40.0,38.0,29.77,NE,54,8.0,12.0,93,-99.99,,,-99.99,,2013-04-12 21:53:00,
2013-04-12 18:00:00,40.0,38.0,29.77,ENE,66,5.0,10.0,92,-99.99,,,-99.99,,2013-04-12 22:00:00,
2013-04-12 18:23:00,40.0,38.0,29.77,ENE,66,5.0,10.0,92,-99.99,,,-99.99,,2013-04-12 22:23:00,
2013-04-12 18:33:00,40.0,38.0,29.77,ENE,66,5.0,10.0,92,-99.99,,,-99.99,,2013-04-12 22:33:00,
2013-04-12 18:43:00,40.0,38.0,29.77,ENE,66,5.0,10.0,92,-99.99,,,-99.99,,2013-04-12 22:43:00,
2013-04-12 18:52:00,40.0,38.0,29.77,ENE,66,5.0,10.0,92,-99.99,,,-99.99,,2013-04-12 22:52:00,
2013-04-12 19:00:00,39.0,38.0,29.74,North,354,6.0,11.0,94,-99.99,,,-99.99,,2013-04-12 23:00:00,
2013-04-12 19:22:00,39.0,38.0,29.74,North,354,6.0,11.0,94,-99.99,,,-99.99,,2013-04-12 23:22:00,
2013-04-12 19:32:00,39.0,38.0,29.74,North,354,6.0,11.0,94,-99.99,,,-99.99,,2013-04-12 23:32:00,
2013-04-12 19:42:00,39.0,38.0,29.74,North,354,6.0,11.0,94,-99.99,,,-99.99,,2013-04-12 23:42:00,
2013-04-12 19:52:00,39.0,38.0,29.74,North,354,6.0,11.0,94,-99.99,,,-99.99,,2013-04-12 23:52:00,
2013-04-12 20:00:00,39.0,38.0,29.74,NE,34,4.0,8.0,96,-99.99,,,-99.99,,2013-04-13 00:00:00,
2013-04-12 20:22:00,39.0,38.0,29.74,NE,34,4.0,8.0,96,-99.99,,,-99.99,,2013-04-13 00:22:00,
2013-04-12 20:32:00,39.0,38.0,29.74,NE,34,4.0,8.0,96,-99.99,,,-99.99,,2013-04-13 00:32:00,
2013-04-12 20:42:00,39.0,38.0,29.74,NE,34,4.0,8.0,96,-99.99,,,-99.99,,2013-04-13 00:42:00,
2013-04-12 20:52:00,39.0,38.0,29.74,NE,34,4.0,8.0,96,-99.99,,,-99.99,,2013-04-13 00:52:00,
2013-04-12 21:00:00,38.0,37.0,29.77,ENE,60,5.0,9.0,96,-99.99,,,-99.99,,2013-04-13 01:00:00,
2013-04-12 21:23:00,38.0,37.0,29.77,ENE,60,5.0,9.0,96,-99.99,,,-99.99,,2013-04-13 01:23:00,
2013-04-12 21:33:00,38.0,37.0,29.77,ENE,60,5.0,9.0,96,-99.99,,,-99.99,,2013-04-13 01:33:00,
2013-04-12 21:43:00,38.0,37.0,29.77,ENE,60,5.0,9.0,96,-99.99,,,-99.99,,2013-04-13 01:43:00,
2013-04-12 21:52:00,38.0,37.0,29.77,ENE,60,5.0,9.0,96,-99.99,,,-99.99,,2013-04-13 01:52:00,
2013-04-12 22:00:00,38.0,37.0,29.77,NW,307,0.0,10.0,96,-99.99,,,-99.99,,2013-04-13 02:00:00,
2013-04-12 22:23:00,38.0,37.0,29.77,NW,307,0.0,10.0,96,-99.99,,,-99.99,,2013-04-13 02:23:00,
2013-04-12 22:33:00,38.0,37.0,29.77,NW,307,0.0,10.0,96,-99.99,,,-99.99,,2013-04-13 02:33:00,
2013-04-12 22:43:00,38.0,37.0,29.77,NW,307,0.0,10.0,96,-99.99,,,-99.99,,2013-04-13 02:43:00,
2013-04-12 22:53:00,38.0,37.0,29.77,NW,307,0.0,10.0,96,-99.99,,,-99.99,,2013-04-13 02:53:00,
2013-04-12 23:00:00,38.0,37.0,29.77,NNE,17,2.0,9.0,95,-99.99,,,-99.99,,2013-04-13 03:00:00,
2013-04-12 23:33:00,38.0,37.0,29.77,NNE,17,2.0,9.0,95,-99.99,,,-99.99,,2013-04-13 03:33:00,
2013-04-12 23:43:00,38.0,37.0,29.77,NNE,17,2.0,9.0,95,-99.99,,,-99.99,,2013-04-13 03:43:00,
2013-04-12 23:54:00,38.0,37.0,29.77,NNE,17,2.0,9.0,95,-99.99,,,-99.99,,2013-04-13 03:54:00,